"2009-06-06 00:00:00",950705,2.98,33.69,3.18,0.415,19.17,107.8908,19.48,20.53,62.04,0,110.8,13.21,20.30,355.7
"2009-06-06 00:00:30",950706,3.518,22.37,4.322,0.364,16.25,107.8887,19.47,20.53,62.51,0,110.8,13.21,20.29,344.4
"2009-06-06 00:01:00",950707,3.296,19.56,3.002,0.396,18.83,107.8901,19.48,20.54,63.25,0,110.8,13.21,20.30,341.6
"2009-06-06 00:01:30",950708,2.93,14.85,2.963,0.532,18.81,107.8925,19.48,20.53,63.34,0,110.8,13.21,20.30,336.9
"2009-06-06 00:02:00",950709,3.398,17.71,3.19,0.526,16.44,107.8926,19.48,20.52,62.84,0,110.8,13.21,20.30,339.7
"2009-06-06 00:02:30",950710,2.495,12,5.951,0.871,18.65,107.8904,19.48,20.51,62.37,0,110.8,13.21,20.30,334.0
"2009-06-06 00:03:00",950711,3.265,37.34,9.11,0.15,18.97,107.889,19.47,20.5,62.36,0,110.8,13.21,20.29,359.3
"2009-06-06 00:03:30",950712,3.125,40.3,3.522,0.137,14.43,107.8888,19.47,20.51,61.64,0,110.8,13.21,20.29,2.3
"2009-06-06 00:04:00",950713,2.467,35.49,6.202,0.445,19.16,107.8906,19.48,20.51,61.53,0,110.8,13.21,20.30,357.5
"2009-06-06 00:04:30",950714,2.946,33.71,4.388,0.285,19.06,107.89,19.48,20.51,61.85,0,110.8,13.21,20.30,355.7
"2009-06-06 00:05:00",950715,3.241,34.35,5.03,0.466,14.37,107.8949,19.49,20.52,62.76,0,110.8,13.21,20.31,356.4
"2009-06-06 00:05:30",950716,3.446,45.14,3.03,0.347,17.1,107.8989,19.5,20.52,62.64,0,110.8,13.21,20.32,7.1
"2009-06-06 00:06:00",950717,3.102,34.15,4.392,0.324,12.27,107.9013,19.51,20.52,62.61,0,110.8,13.21,20.33,356.1
"2009-06-06 00:06:30",950718,3.445,39.83,4.882,0.195,14.33,107.9021,19.51,20.52,62.86,0,110.8,13.21,20.33,1.8
"2009-06-06 00:07:00",950719,3.931,39.98,3.762,0.194,12.01,107.9087,19.53,20.52,62.51,0,110.8,13.21,20.35,2.0
"2009-06-06 00:07:30",950720,4.047,42.04,1.047,0.111,6.675,107.9205,19.56,20.54,62.32,0,110.8,13.21,20.38,4.0
"2009-06-06 00:08:00",950721,4.143,42.36,1.147,0.166,9.38,107.9245,19.57,20.53,61.95,0,110.8,13.21,20.39,4.4
"2009-06-06 00:08:30",950722,4.369,42.69,2.419,0.268,-3.398,107.9263,19.57,20.55,61.79,0,110.8,13.21,20.39,4.7
"2009-06-06 00:09:00",950723,4.108,45.34,2.298,0.194,4.37,107.9248,19.57,20.54,61.88,0,110.8,13.2,20.39,7.3
"2009-06-06 00:09:30",950724,4.227,41.2,3.921,0.148,-16.54,107.9269,19.57,20.56,61.99,0,110.8,13.2,20.39,3.2
"2009-06-06 00:10:00",950725,3.369,34.29,4.16,0.562,-8.84,107.9324,19.59,20.57,62.49,0,110.8,13.2,20.41,356.3
"2009-06-06 00:10:30",950726,3.387,38.63,8.49,0.363,-21.65,107.9456,19.62,20.58,62.49,0,110.8,13.2,20.44,0.6
"2009-06-06 00:11:00",950727,3.659,40.5,5.56,0.369,-26.7,107.9562,19.65,20.59,62.1,0,110.8,13.2,20.47,2.5
"2009-06-06 00:11:30",950728,3.302,34.68,5.726,0.692,1.585,107.9576,19.65,20.61,62.35,0,110.8,13.2,20.47,356.7
"2009-06-06 00:12:00",950729,3.612,29.99,2.83,0.566,11.82,107.9579,19.65,20.61,62.49,0,110.8,13.2,20.47,352.0
"2009-06-06 00:12:30",950730,4.254,25.39,4.311,0.297,6.145,107.9582,19.65,20.62,63.28,0,110.8,13.2,20.47,347.4
"2009-06-06 00:13:00",950731,4.096,24.97,2.751,0.311,11.4,107.9585,19.65,20.63,63.43,0,110.8,13.2,20.47,347.0
"2009-06-06 00:13:30",950732,3.902,27.23,4.716,0.345,1.603,107.9637,19.67,20.63,63.69,0,110.8,13.2,20.49,349.2
"2009-06-06 00:14:00",950733,3.804,25.38,2.168,0.328,14.54,107.9653,19.67,20.66,63.36,0,110.8,13.21,20.49,347.4
"2009-06-06 00:14:30",950734,3.822,25.17,3.253,0.401,17.1,107.9688,19.68,20.66,63.81,0,110.8,13.2,20.50,347.2
"2009-06-06 00:15:00",950735,3.515,23.91,4.218,0.255,-6.062,107.9641,19.67,20.66,63.95,0,110.8,13.21,20.49,345.9
"2009-06-06 00:15:30",950736,3.842,30.86,4.403,0.318,-24.07,107.9644,19.67,20.66,64.2,0,110.8,13.2,20.49,352.9
"2009-06-06 00:16:00",950737,4.39,37.04,2.796,0.638,-42.24,107.9628,19.66,20.65,63.78,0,110.8,13.21,20.48,359.0
"2009-06-06 00:16:30",950738,3.929,30.69,3.268,0.511,-21.17,107.9631,19.66,20.66,63.5,0,110.8,13.21,20.49,352.7
"2009-06-06 00:17:00",950739,3.898,29.17,3.63,0.33,11.75,107.9595,19.66,20.65,64.11,0,110.8,13.21,20.48,351.2
"2009-06-06 00:17:30",950740,3.786,28.91,3.94,0.295,9.51,107.9339,19.59,20.65,63.91,0,110.8,13.21,20.41,350.9
"2009-06-06 00:18:00",950741,4.286,32.08,4.471,0.516,4.855,107.9312,19.58,20.62,63.35,0,110.8,13.21,20.40,354.1
"2009-06-06 00:18:30",950742,4.07,29.72,4.64,0.318,4.823,107.9058,19.52,20.6,63.44,0,110.8,13.21,20.34,351.7
"2009-06-06 00:19:00",950743,4.68,35.56,3.139,0.283,5.015,107.8971,19.5,20.57,63.21,0,110.8,13.21,20.32,357.6
"2009-06-06 00:19:30",950744,4.175,33.14,2.883,0.42,7.908,107.8712,19.43,20.55,64.04,0,110.8,13.21,20.25,355.1
"2009-06-06 00:20:00",950745,3.894,35.45,4.499,0.341,7.241,107.8606,19.4,20.51,64.6,0,110.8,13.21,20.22,357.5
"2009-06-06 00:20:30",950746,4.166,38,4.554,0.66,10.13,107.8361,19.34,20.49,64.52,0,110.8,13.21,20.16,0.0
"2009-06-06 00:21:00",950747,4.519,38.8,3.686,0.339,-0.684,107.8212,19.3,20.43,64.21,0,110.8,13.21,20.12,0.8
"2009-06-06 00:21:30",950748,4.374,43.67,2.149,0.175,17.07,107.7961,19.24,20.41,63.95,0,110.8,13.21,20.06,5.7
"2009-06-06 00:22:00",950749,3.84,44.51,1.529,0.132,15,107.7821,19.2,20.35,63.71,0,110.8,13.21,20.02,6.5
"2009-06-06 00:22:30",950750,4.026,42.65,2.856,0.185,19.82,107.7624,19.15,20.33,63.92,0,110.8,13.21,19.97,4.7
"2009-06-06 00:23:00",950751,3.801,40.14,4.141,0.207,19.95,107.7495,19.12,20.28,64.16,0,110.8,13.21,19.94,2.1
"2009-06-06 00:23:30",950752,3.748,40.99,2.013,0.202,-13.73,107.7286,19.06,20.23,64.2,0,110.8,13.21,19.88,3.0
"2009-06-06 00:24:00",950753,3.73,38.75,6.395,0.481,-0.102,107.7196,19.04,20.21,64.73,0,110.8,13.22,19.86,0.8
"2009-06-06 00:24:30",950754,4.025,37.83,2.097,0.246,7.585,107.6963,18.98,20.18,64.99,0,110.8,13.22,19.80,359.8
"2009-06-06 00:25:00",950755,3.875,40.75,3.168,0.213,7.124,107.6898,18.96,20.14,65.04,0,110.8,13.22,19.78,2.8
"2009-06-06 00:25:30",950756,4.285,37.39,1.712,0.175,10.06,107.6634,18.9,20.11,65.56,0,110.8,13.21,19.71,359.4
"2009-06-06 00:26:00",950757,3.735,32.96,2.916,0.452,5.621,107.6575,18.88,20.08,66.43,0,110.8,13.21,19.70,355.0
"2009-06-06 00:26:30",950758,3.265,29.46,3.622,0.31,7.874,107.6331,18.82,20.04,66.78,0,110.8,13.21,19.64,351.5
"2009-06-06 00:27:00",950759,4.201,35.83,4.118,0.582,7.399,107.6301,18.81,20.01,66.81,0,110.8,13.21,19.63,357.8
"2009-06-06 00:27:30",950760,3.365,32.87,2.774,0.361,20.02,107.6086,18.76,19.98,66.71,0,110.8,13.21,19.57,354.9
"2009-06-06 00:28:00",950761,3.839,33.38,3.985,0.463,19.79,107.6091,18.76,19.93,67.35,0,110.8,13.21,19.57,355.4
"2009-06-06 00:28:30",950762,3.054,23.85,2.562,0.191,19.68,107.605,18.75,19.9,67.61,0,110.8,13.21,19.56,345.9
"2009-06-06 00:29:00",950763,2.891,20.65,2.547,0.228,19.45,107.5871,18.7,19.86,67.71,0,110.8,13.21,19.52,342.6
"2009-06-06 00:29:30",950764,3.117,27.06,2.617,0.323,19.42,107.5892,18.71,19.82,67.89,0,110.8,13.21,19.52,349.1
"2009-06-06 00:30:00",950765,2.95,29.07,2.87,0.265,19.53,107.5749,18.67,19.81,68.07,0,110.8,13.22,19.49,351.1
"2009-06-06 00:30:30",950766,3.069,29.16,3.259,0.395,19.43,107.5621,18.64,19.76,68.04,0,110.8,13.22,19.45,351.2
"2009-06-06 00:31:00",950767,3.135,29.1,3.464,0.293,14.53,107.558,18.63,19.75,67.9,0,110.8,13.22,19.44,351.1
"2009-06-06 00:31:30",950768,2.933,28.6,2.576,0.239,19.4,107.5346,18.57,19.72,68.02,0,110.8,13.22,19.38,350.6
"2009-06-06 00:32:00",950769,3.375,35.64,2.051,0.405,17.09,107.5287,18.55,19.69,68.23,0,110.8,13.22,19.37,357.6
"2009-06-06 00:32:30",950770,2.397,27.27,2.259,0.302,19.24,107.5076,18.5,19.65,68.2,0,110.8,13.23,19.31,349.3
"2009-06-06 00:33:00",950771,2.767,25.88,3.078,0.36,19.14,107.4949,18.46,19.62,68.35,0,110.8,13.23,19.28,347.9
"2009-06-06 00:33:30",950772,3.212,31.98,3.18,0.405,16.85,107.4946,18.46,19.6,68.7,0,110.8,13.23,19.28,354.0
"2009-06-06 00:34:00",950773,3.483,27.37,2.221,0.282,19.12,107.4699,18.4,19.57,68.95,0,110.7,13.23,19.22,349.4
"2009-06-06 00:34:30",950774,3.519,25,2.514,0.354,19.23,107.4612,18.38,19.54,69.07,0,110.8,13.23,19.19,347.0
"2009-06-06 00:35:00",950775,3.416,27.43,3.847,0.248,19.41,107.4584,18.37,19.52,69.11,0,110.8,13.23,19.19,349.4
"2009-06-06 00:35:30",950776,3.324,25.99,2.563,0.351,19.44,107.4344,18.31,19.48,69.07,0,110.7,13.23,19.12,348.0
"2009-06-06 00:36:00",950777,3.262,29.68,4.116,0.323,19.67,107.4274,18.29,19.45,68.93,0,110.7,13.23,19.11,351.7
"2009-06-06 00:36:30",950778,3.063,30.15,3.721,0.261,17.17,107.4254,18.29,19.41,68.71,0,110.7,13.24,19.10,352.1
"2009-06-06 00:37:00",950779,2.82,28.87,3.299,0.21,16.93,107.4018,18.23,19.4,68.51,0,110.7,13.24,19.04,350.9
"2009-06-06 00:37:30",950780,3.276,22.26,3.558,0.294,19.98,107.3942,18.21,19.36,68.59,0,110.7,13.24,19.02,344.3
"2009-06-06 00:38:00",950781,3.336,23.28,3.217,0.302,6.646,107.394,18.21,19.34,68.83,0,110.7,13.24,19.02,345.3
"2009-06-06 00:38:30",950782,3.074,24.24,2.374,0.178,14.79,107.3895,18.19,19.33,68.97,0,110.7,13.24,19.01,346.2
"2009-06-06 00:39:00",950783,3.326,20.64,4.09,0.386,12.14,107.3753,18.16,19.3,69.11,0,110.7,13.24,18.97,342.6
"2009-06-06 00:39:30",950784,3.271,21.9,2.079,0.263,19.27,107.3697,18.14,19.28,69.28,0,110.7,13.24,18.96,343.9
"2009-06-06 00:40:00",950785,2.772,19.18,3.774,0.57,18.5,107.3671,18.14,19.27,69.59,0,110.7,13.24,18.95,341.2
"2009-06-06 00:40:30",950786,2.815,18.84,2.173,0.267,16.26,107.368,18.14,19.26,69.8,0,110.7,13.24,18.95,340.8
"2009-06-06 00:41:00",950787,2.461,17.43,3.764,0.292,19.16,107.3714,18.15,19.24,69.89,0,110.7,13.24,18.96,339.4
"2009-06-06 00:41:30",950788,1.959,18.62,8.51,0.4,19.05,107.3705,18.15,19.24,69.9,0,110.7,13.24,18.96,340.6
"2009-06-06 00:42:00",950789,0.996,11.32,10.54,0.369,18.48,107.3744,18.16,19.22,69.89,0,110.7,13.24,18.97,333.3
"2009-06-06 00:42:30",950790,0.648,10.42,10.54,0.378,16.16,107.3726,18.15,19.22,69.85,0,110.7,13.24,18.97,332.4
"2009-06-06 00:43:00",950791,0.403,359.6,14.41,0.158,18.6,107.3761,18.16,19.21,69.85,0,110.7,13.24,18.97,321.6
"2009-06-06 00:43:30",950792,0.862,349.4,14.89,0.344,15.92,107.3696,18.14,19.21,69.81,0,110.7,13.23,18.96,311.4
"2009-06-06 00:44:00",950793,1.021,334.7,6.226,0.144,18.51,107.3722,18.15,19.2,69.71,0,110.7,13.23,18.96,296.7
"2009-06-06 00:44:30",950794,0.665,344.8,9.5,0.125,18.57,107.3663,18.13,19.18,69.63,0,110.7,13.24,18.95,306.8
"2009-06-06 00:45:00",950795,0.846,327.5,13.92,0.081,18.46,107.3601,18.12,19.18,69.67,0,110.7,13.24,18.93,289.5
"2009-06-06 00:45:30",950796,1.249,324.4,9.76,0.512,18.41,107.3589,18.12,19.16,69.8,0,110.7,13.24,18.93,286.4
"2009-06-06 00:46:00",950797,1.988,304.5,5.475,0.216,20.15,107.3591,18.12,19.16,69.93,0,110.7,13.23,18.93,266.5
"2009-06-06 00:46:30",950798,2.579,298.4,8.2,0.231,-25.13,107.3615,18.12,19.15,70.01,0,110.7,13.23,18.94,260.4
"2009-06-06 00:47:00",950799,2.676,291.3,0.02,0.005,-58.07,107.3609,18.12,19.13,70.14,0,110.7,13.23,18.94,253.3
"2009-06-06 00:47:30",950800,3.18,281.8,4.446,0.337,-23.72,107.3621,18.12,19.12,70.26,0,110.7,13.24,18.94,243.8
"2009-06-06 00:48:00",950801,2.893,285.1,3.002,0.206,-3.808,107.3613,18.12,19.11,70.39,0,110.7,13.24,18.94,247.1
"2009-06-06 00:48:30",950802,2.619,288.3,2.379,0.181,-21.65,107.3556,18.11,19.11,70.51,0,110.7,13.24,18.92,250.3
"2009-06-06 00:49:00",950803,2.476,290.7,4.425,0.109,4.557,107.3466,18.08,19.09,70.44,0,110.7,13.24,18.90,252.7
"2009-06-06 00:49:30",950804,2.479,299.9,3.462,0.14,-20.47,107.3303,18.04,19.11,70.09,0,110.7,13.24,18.86,261.9
"2009-06-06 00:50:00",950805,2.564,308,3.304,0.151,-3.407,107.3286,18.04,19.08,69.91,0,110.7,13.24,18.85,270.0
"2009-06-06 00:50:30",950806,2.532,313.4,2.486,0.141,12.06,107.3286,18.04,19.08,69.86,0,110.7,13.25,18.85,275.4
"2009-06-06 00:51:00",950807,1.997,316.2,1.837,0.191,8.65,107.3283,18.04,19.07,69.89,0,110.7,13.25,18.85,278.2
"2009-06-06 00:51:30",950808,1.999,322,3.239,0.107,21.87,107.3083,17.99,19.06,70.05,0,110.7,13.25,18.80,284.0
"2009-06-06 00:52:00",950809,2.194,321.9,2.108,0.177,11.37,107.2948,17.95,19.04,70.15,0,110.7,13.25,18.77,283.9
"2009-06-06 00:52:30",950810,2.4,325.7,3.16,0.096,18.11,107.2948,17.95,19.03,70.11,0,110.7,13.25,18.77,287.7
"2009-06-06 00:53:00",950811,2.351,324.4,1.414,0.085,14.95,107.2931,17.95,19.01,70.06,0,110.7,13.25,18.76,286.4
"2009-06-06 00:53:30",950812,2.247,322.2,1.808,0.057,16.92,107.276,17.9,19.01,70.15,0,110.7,13.25,18.72,284.2
"2009-06-06 00:54:00",950813,2.275,321,1.841,0.086,14.23,107.2633,17.87,19,70.31,0,110.7,13.25,18.68,283.0
"2009-06-06 00:54:30",950814,2.176,323.8,1.613,0.086,19.15,107.2611,17.86,18.98,70.4,0,110.7,13.25,18.68,285.8
"2009-06-06 00:55:00",950815,2.684,318.4,3.769,0.3,6.708,107.2605,17.86,18.97,70.42,0,110.7,13.25,18.68,280.4
"2009-06-06 00:55:30",950816,3.155,309.8,2.3,0.064,19.05,107.2587,17.86,18.96,70.46,0,110.7,13.26,18.67,271.8
"2009-06-06 00:56:00",950817,3.647,304.1,2.529,0.239,16.89,107.241,17.81,18.94,70.46,0,110.7,13.26,18.63,266.1
"2009-06-06 00:56:30",950818,4.046,302.2,0.834,0.065,16.65,107.2341,17.8,18.92,70.38,0,110.7,13.26,18.61,264.2
"2009-06-06 00:57:00",950819,3.829,299.8,1.302,0.042,19.45,107.2403,17.81,18.91,70.3,0,110.7,13.26,18.63,261.8
"2009-06-06 00:57:30",950820,3.9,296.7,1.406,0.087,17.67,107.238,17.81,18.89,70.4,0,110.7,13.26,18.62,258.7
"2009-06-06 00:58:00",950821,4.02,291.3,2.802,0.103,17.01,107.22,17.76,18.88,70.6,0,110.7,13.26,18.57,253.3
"2009-06-06 00:58:30",950822,3.951,286.7,1.399,0.161,19.84,107.2195,17.76,18.87,70.72,0,110.7,13.26,18.57,248.7
"2009-06-06 00:59:00",950823,3.606,297.1,5.605,0.165,20.06,107.2011,17.71,18.83,70.93,0,110.7,13.26,18.52,259.1
"2009-06-06 00:59:30",950824,5.483,308.9,1.068,0.66,16.83,107.193,17.69,18.81,70.93,0,110.7,13.25,18.50,270.9
"2009-06-06 01:00:00",950825,7.073,310.1,1.802,0.494,19.57,107.1936,17.69,18.77,70.59,0,110.6,13.26,18.51,272.1
"2009-06-06 01:00:30",950826,8.92,314.4,10.42,1.676,21.89,107.1779,17.65,18.82,64.55,0,110.7,13.21,18.46,276.4
"2009-06-06 01:01:00",950827,13.19,325.5,6.854,1.393,24.08,107.1844,17.67,18.98,42.17,0,110.7,13.21,18.48,287.5
"2009-06-06 01:01:30",950828,11.83,325.9,2.838,1.424,24.31,107.1692,17.63,18.91,38.44,0,110.6,13.21,18.44,287.9
"2009-06-06 01:02:00",950829,9.43,333.2,8.55,2.243,20.91,107.1709,17.63,18.71,38.27,0,110.6,13.21,18.45,295.2
"2009-06-06 01:02:30",950830,10.54,327,5.903,0.941,19.11,107.1957,17.7,18.64,36.57,0,110.6,13.25,18.51,289.0
"2009-06-06 01:03:00",950831,10.76,328.1,3.096,0.56,17.08,107.1959,17.7,18.64,35.56,0,110.6,13.25,18.51,290.1
"2009-06-06 01:03:30",950832,13.01,323.2,2.575,0.933,14.57,107.2058,17.72,18.66,34.66,0,110.6,13.25,18.54,285.2
"2009-06-06 01:04:00",950833,12.33,325.8,5.827,1.072,18.75,107.2283,17.78,18.68,34.79,0,110.6,13.26,18.59,287.8
"2009-06-06 01:04:30",950834,11.58,319.7,3.799,0.73,9.1,107.2494,17.83,18.7,35.84,0,110.6,13.26,18.65,281.7
"2009-06-06 01:05:00",950835,11.35,322,3.854,0.665,16.45,107.2838,17.92,18.73,35.69,0,110.6,13.26,18.74,284.0
"2009-06-06 01:05:30",950836,9.75,326.5,6.168,0.692,19.93,107.3204,18.02,18.78,39.6,0,110.6,13.26,18.83,288.5
"2009-06-06 01:06:00",950837,10.5,316.5,2.723,0.689,19.87,107.3423,18.07,18.85,44.87,0,110.6,13.26,18.89,278.5
"2009-06-06 01:06:30",950838,9.28,326.1,9.65,0.848,19.92,107.3652,18.13,18.88,44.11,0,110.6,13.26,18.95,288.1
"2009-06-06 01:07:00",950839,11.06,325.6,6.777,0.563,19.87,107.3946,18.21,18.97,46.14,0,110.6,13.27,19.02,287.6
"2009-06-06 01:07:30",950840,9.25,332.2,8.2,0.813,19.72,107.4023,18.23,18.99,41.55,0,110.6,13.27,19.04,294.2
"2009-06-06 01:08:00",950841,8.5,341.4,5.6,0.7,17.23,107.4107,18.25,19.05,53.33,0,110.6,13.27,19.06,303.4
"2009-06-06 01:08:30",950842,9.67,344.8,3.542,0.928,19.8,107.4162,18.26,19.1,60.86,0,110.6,13.27,19.08,306.8
"2009-06-06 01:09:00",950843,10.31,338.1,4.721,0.976,9.91,107.4178,18.27,19.14,62.88,0,110.6,13.27,19.08,300.1
"2009-06-06 01:09:30",950844,11.17,338.1,2.858,0.744,15.51,107.4139,18.26,19.12,51.26,0,110.6,13.27,19.07,300.1
"2009-06-06 01:10:00",950845,12.52,327.8,5.313,1.001,20.28,107.3942,18.21,19.08,40.11,0,110.6,13.27,19.02,289.8
"2009-06-06 01:10:30",950846,12.8,321.7,3.112,1.07,16.96,107.4017,18.23,19.09,42.17,0,110.6,13.27,19.04,283.7
"2009-06-06 01:11:00",950847,12.93,324.4,1.984,0.843,19.88,107.4189,18.27,19.08,47.42,0,110.6,13.27,19.09,286.4
"2009-06-06 01:11:30",950848,10.56,325.7,2.601,0.6,18.97,107.4271,18.29,19.1,48.33,0,110.6,13.27,19.11,287.7
"2009-06-06 01:12:00",950849,9.88,322.6,1.627,0.673,18.83,107.4271,18.29,19.12,44.33,0,110.6,13.27,19.11,284.6
"2009-06-06 01:12:30",950850,10.5,323.1,1.306,0.523,19.35,107.4289,18.29,19.13,39.66,0,110.6,13.27,19.11,285.1
"2009-06-06 01:13:00",950851,9.01,326.5,2.218,0.576,18.4,107.4295,18.3,19.13,40.65,0,110.6,13.27,19.11,288.5
"2009-06-06 01:13:30",950852,7.805,331.2,3.843,0.46,18.67,107.4341,18.31,19.16,46.38,0,110.6,13.27,19.12,293.2
"2009-06-06 01:14:00",950853,7.096,330,4.424,1.007,19.67,107.4556,18.36,19.16,37.92,0,110.6,13.27,19.18,292.0
"2009-06-06 01:14:30",950854,5.532,323.2,5.228,0.33,21.28,107.466,18.39,19.18,33.76,0,110.6,13.27,19.21,285.2
"2009-06-06 01:15:00",950855,4.787,332.7,10.62,0.621,18.09,107.4925,18.46,19.19,34.24,0,110.6,13.27,19.27,294.7
"2009-06-06 01:15:30",950856,7.184,313.9,15.7,2.048,16.28,107.5021,18.48,19.25,34.45,0,110.6,13.24,19.30,275.9
"2009-06-06 01:16:00",950857,7.229,327.4,9.83,1.088,23.89,107.5338,18.56,19.58,33.76,0,110.6,13.23,19.38,289.4
"2009-06-06 01:16:30",950858,6.127,334.5,22.73,1.152,23.19,107.536,18.57,19.61,33.56,0,110.6,13.23,19.39,296.5
"2009-06-06 01:17:00",950859,2.012,5.735,18.32,1.307,20.89,107.5363,18.57,19.52,33.38,0,110.6,13.22,19.39,327.7
"2009-06-06 01:17:30",950860,1.066,1.308,20.14,0.581,18.58,107.5366,18.57,19.36,32.84,0,110.6,13.26,19.39,323.3
"2009-06-06 01:18:00",950861,1.571,5.05,11.49,0.868,18.19,107.5403,18.58,19.38,33.27,0,110.6,13.26,19.40,327.0
"2009-06-06 01:18:30",950862,2.271,12.87,15.8,1.01,18.13,107.5363,18.57,19.4,32.83,0,110.6,13.26,19.39,334.9
"2009-06-06 01:19:00",950863,3.099,31.38,5.536,0.368,17.98,107.5363,18.57,19.43,33.08,0,110.6,13.26,19.39,353.4
"2009-06-06 01:19:30",950864,3.216,33.22,8.14,0.286,18.01,107.5332,18.56,19.42,33.28,0,110.6,13.27,19.38,355.2
"2009-06-06 01:20:00",950865,2.666,45.64,6.697,0.254,18.04,107.5099,18.5,19.42,33.69,0,110.6,13.27,19.32,7.6
"2009-06-06 01:20:30",950866,2.754,33.46,19.16,0.872,17.98,107.5025,18.48,19.43,36.1,0,110.6,13.27,19.30,355.5
"2009-06-06 01:21:00",950867,1.74,5.67,13.66,0.614,18.34,107.5045,18.49,19.41,34.3,0,110.6,13.27,19.31,327.7
"2009-06-06 01:21:30",950868,1.337,10.87,17.72,0.742,18.46,107.5338,18.56,19.42,32.57,0,110.6,13.27,19.38,332.9
"2009-06-06 01:22:00",950869,2.738,331.1,19.82,0.807,18.55,107.5372,18.57,19.46,32.83,0,110.6,13.27,19.39,293.1
"2009-06-06 01:22:30",950870,3.959,314.1,4.879,0.679,18.68,107.5363,18.57,19.48,33.02,0,110.6,13.28,19.39,276.1
"2009-06-06 01:23:00",950871,4.335,311.8,6.138,0.557,18.71,107.5363,18.57,19.49,32.45,0,110.6,13.28,19.39,273.8
"2009-06-06 01:23:30",950872,4.871,306.7,4.782,0.356,18.82,107.5363,18.57,19.48,31.83,0,110.6,13.28,19.39,268.7
"2009-06-06 01:24:00",950873,3.995,308.6,6.772,0.433,18.78,107.536,18.57,19.49,31.92,0,110.6,13.28,19.39,270.6
"2009-06-06 01:24:30",950874,3.943,312.7,4.72,0.316,18.89,107.5363,18.57,19.49,31.68,0,110.6,13.28,19.39,274.7
"2009-06-06 01:25:00",950875,3.383,313.3,10.2,0.406,18.79,107.5363,18.57,19.48,31.54,0,110.6,13.28,19.39,275.3
"2009-06-06 01:25:30",950876,4.1,294.6,7.013,0.604,18.72,107.5363,18.57,19.5,31.91,0,110.6,13.28,19.39,256.6
"2009-06-06 01:26:00",950877,5.799,280.9,9.72,0.269,19.23,107.5363,18.57,19.5,31.35,0,110.6,13.28,19.39,242.9
"2009-06-06 01:26:30",950878,6.019,276.2,10.04,0.612,19.15,107.5569,18.62,19.5,31.09,0,110.6,13.28,19.44,238.2
"2009-06-06 01:27:00",950879,5.312,268,10.73,0.565,19.06,107.5701,18.66,19.53,31.07,0,110.5,13.28,19.47,230.0
"2009-06-06 01:27:30",950880,5.077,270.3,2.434,0.475,19.09,107.5898,18.71,19.57,30.92,0,110.6,13.28,19.52,232.3
"2009-06-06 01:28:00",950881,5.081,269,4.04,0.485,19.05,107.6053,18.75,19.6,30.77,0,110.6,13.28,19.56,231.0
"2009-06-06 01:28:30",950882,5.498,278.6,10.55,0.6,18.89,107.6329,18.82,19.63,30.76,0,110.5,13.28,19.64,240.6
"2009-06-06 01:29:00",950883,4.904,295.7,9.73,0.436,18.86,107.6586,18.88,19.67,30.76,0,110.6,13.28,19.70,257.7
"2009-06-06 01:29:30",950884,5.025,286.7,11.52,0.312,18.94,107.6766,18.93,19.71,30.68,0,110.6,13.28,19.75,248.7
"2009-06-06 01:30:00",950885,5.008,302.1,3.425,0.237,18.87,107.7053,19,19.75,30.76,0,110.6,13.28,19.82,264.1
"2009-06-06 01:30:30",950886,4.296,297.6,5.031,0.287,18.83,107.7219,19.05,19.81,30.85,0,110.6,13.28,19.86,259.6
"2009-06-06 01:31:00",950887,3.828,292.2,7.155,0.137,18.87,107.7391,19.09,19.87,30.81,0,110.6,13.28,19.91,254.2
"2009-06-06 01:31:30",950888,4.039,293.9,5.067,0.128,18.86,107.7402,19.09,19.89,30.79,0,110.6,13.28,19.91,255.9
"2009-06-06 01:32:00",950889,4.46,294.2,3.608,0.23,18.84,107.767,19.16,19.94,30.74,0,110.6,13.28,19.98,256.2
"2009-06-06 01:32:30",950890,4.583,285,2.805,0.13,18.77,107.7729,19.18,19.97,30.59,0,110.6,13.28,20.00,247.0
"2009-06-06 01:33:00",950891,4.473,292.3,3.638,0.131,18.81,107.776,19.19,20.01,30.44,0,110.6,13.28,20.00,254.3
"2009-06-06 01:33:30",950892,4.323,299.5,2.275,0.112,18.78,107.7968,19.24,20.06,30.31,0,110.6,13.28,20.06,261.5
"2009-06-06 01:34:00",950893,3.669,306.5,2.757,0.275,18.75,107.8067,19.26,20.09,29.97,0,110.6,13.27,20.08,268.5
"2009-06-06 01:34:30",950894,3.596,310.3,3.524,0.513,18.61,107.8075,19.27,20.12,29.62,0,110.6,13.27,20.09,272.3
"2009-06-06 01:35:00",950895,4.092,309.6,3.292,0.272,18.57,107.8306,19.33,20.13,29.68,0,110.6,13.27,20.14,271.6
"2009-06-06 01:35:30",950896,3.775,300.1,2.385,0.156,18.64,107.8399,19.35,20.18,29.6,0,110.6,13.27,20.17,262.1
"2009-06-06 01:36:00",950897,3.521,296.8,2.148,0.256,18.62,107.8405,19.35,20.2,29.53,0,110.6,13.27,20.17,258.8
"2009-06-06 01:36:30",950898,3.406,296.3,2.957,0.117,18.62,107.8405,19.35,20.23,29.42,0,110.6,13.27,20.17,258.3
"2009-06-06 01:37:00",950899,3.453,294.5,1.288,0.152,18.68,107.8518,19.38,20.24,29.33,0,110.6,13.27,20.20,256.5
"2009-06-06 01:37:30",950900,3.581,296.3,2.35,0.354,18.82,107.8689,19.42,20.27,29.11,0,110.6,13.27,20.24,258.3
"2009-06-06 01:38:00",950901,3.804,295.3,1.573,0.189,18.88,107.8743,19.44,20.28,29.05,0,110.6,13.28,20.26,257.3
"2009-06-06 01:38:30",950902,3.738,295.2,1.378,0.148,18.89,107.8743,19.44,20.31,29.19,0,110.6,13.28,20.26,257.2
"2009-06-06 01:39:00",950903,3.632,288.5,3.975,0.116,18.82,107.8743,19.44,20.33,29.27,0,110.6,13.28,20.26,250.5
"2009-06-06 01:39:30",950904,3.223,289.1,2.614,0.187,18.86,107.8819,19.46,20.35,29.2,0,110.6,13.28,20.28,251.1
"2009-06-06 01:40:00",950905,3.152,284,2.416,0.158,18.9,107.9007,19.51,20.36,29.17,0,110.6,13.28,20.32,246.0
"2009-06-06 01:40:30",950906,2.868,282.8,1.69,0.157,18.87,107.9081,19.52,20.39,29.25,0,110.6,13.28,20.34,244.8
"2009-06-06 01:41:00",950907,2.98,275.6,2.645,0.089,18.77,107.9081,19.52,20.4,29.27,0,110.6,13.28,20.34,237.6
"2009-06-06 01:41:30",950908,2.888,273.9,2.796,0.091,18.77,107.9081,19.52,20.42,29.18,0,110.6,13.28,20.34,235.9
"2009-06-06 01:42:00",950909,2.852,261.4,6.493,0.236,18.94,107.9086,19.53,20.45,29.05,0,110.6,13.28,20.35,223.4
"2009-06-06 01:42:30",950910,2.813,268.1,3.702,0.217,18.85,107.9278,19.57,20.46,29.18,0,110.6,13.28,20.39,230.1
"2009-06-06 01:43:00",950911,2.781,263.7,3.961,0.145,18.79,107.9388,19.6,20.47,29.31,0,110.6,13.28,20.42,225.7
"2009-06-06 01:43:30",950912,2.732,263.4,1.293,0.136,18.58,107.9419,19.61,20.5,29.31,0,110.6,13.28,20.43,225.4
"2009-06-06 01:44:00",950913,3.239,267.3,6.169,0.185,18.76,107.9419,19.61,20.51,29.19,0,110.6,13.28,20.43,229.3
"2009-06-06 01:44:30",950914,3.359,272,3.23,0.267,18.7,107.9419,19.61,20.51,29.02,0,110.6,13.28,20.43,234.0
"2009-06-06 01:45:00",950915,2.92,270.9,1.682,0.125,18.75,107.9419,19.61,20.53,29.03,0,110.6,13.28,20.43,232.9
"2009-06-06 01:45:30",950916,3.016,271.4,1.218,0.185,18.82,107.9503,19.63,20.53,28.99,0,110.6,13.28,20.45,233.4
"2009-06-06 01:46:00",950917,3.19,275.9,3.076,0.133,18.84,107.9647,19.67,20.55,28.93,0,110.6,13.28,20.49,237.9
"2009-06-06 01:46:30",950918,3.083,276.9,2.474,0.134,18.75,107.9683,19.68,20.58,28.99,0,110.6,13.28,20.50,238.9
"2009-06-06 01:47:00",950919,3.188,277.3,2.087,0.27,18.73,107.9748,19.7,20.58,29.07,0,110.6,13.28,20.52,239.3
"2009-06-06 01:47:30",950920,3.38,277.7,1.479,0.067,18.76,107.9754,19.7,20.58,29.18,0,110.6,13.28,20.52,239.7